User: anonymous   Login
Location: Possagno
(45.8500°N, 11.8667°E)
Time: 03:20:53
(UTC+00:00)
Language:

METEOR M2 - Orbit

View from above orbital plane
View from above orbital plane
View from above satellite
View from above satellite

Ground track
Ground track

The orbit data is extracted from the following two-line orbital elements,

1 40069U 14037A   21289.64265096 -.00000033  00000-0  41741-5 0  9993
2 40069  98.4531 313.3478 0004861 320.7720  39.3098 14.20689570377247
Epoch (UTC): 16 October 2021 15:25:25
Eccentricity: 0.0004861
inclination: 98.4531°
perigee height: 819 km
apogee height: 826 km
right ascension of ascending node: 313.3478°
argument of perigee: 320.7720°
revolutions per day: 14.20689570
mean anomaly at epoch: 39.3098°
orbit number at epoch: 37724

The dashed part of the orbit path shows where the satellite is in the earth's shadow,  

DLR